Location: Unspecified
(90.0000°S, 0.0000°E)
Time: 21:14:53
(UTC+00:00)

Envisat - Visible Passes

Search period start: 20 June 2019 00:00
Search period end: 30 June 2019 00:00
Orbit: 764 x 766 km, 98.1° (Epoch: 20 June)

Date Brightness Start Highest point End Pass type
(mag) Time Alt. Az. Time Alt. Az. Time Alt. Az.
20 Jun 5.0 00:40:08 10° ENE 00:41:01 14° ENE 00:41:01 14° ENE visible
20 Jun 5.0 02:20:20 10° NE 02:21:13 14° NE 02:21:13 14° NE visible
20 Jun 5.0 04:00:33 10° NNE 04:01:25 14° NNE 04:01:25 14° NNE visible
20 Jun 5.0 05:40:45 10° N 05:41:37 14° N 05:41:37 14° N visible
20 Jun 5.0 07:20:57 10° NNW 07:21:49 14° NW 07:21:49 14° NW visible
20 Jun 5.0 09:01:09 10° NW 09:02:01 14° WNW 09:02:01 14° WNW visible
20 Jun 5.0 10:41:21 10° W 10:42:13 14° W 10:42:13 14° W visible
20 Jun 5.0 12:21:33 10° WSW 12:22:25 14° WSW 12:22:25 14° WSW visible
20 Jun 5.0 14:01:45 10° SW 14:02:37 14° SW 14:02:37 14° SW visible
20 Jun 5.0 15:41:57 10° SSW 15:42:49 14° SSW 15:42:49 14° SSW visible
20 Jun 5.0 17:22:09 10° S 17:23:01 14° S 17:23:01 14° S visible
20 Jun 5.0 19:02:21 10° SSE 19:03:13 14° SSE 19:03:13 14° SSE visible
20 Jun 5.0 20:42:33 10° SE 20:43:25 14° ESE 20:43:25 14° ESE visible
20 Jun 5.0 22:22:45 10° ESE 22:23:37 14° E 22:23:37 14° E visible
21 Jun 5.1 00:02:57 10° ENE 00:03:49 14° ENE 00:03:49 14° ENE visible
21 Jun 5.1 01:43:09 10° NE 01:44:01 14° NE 01:44:01 14° NE visible
21 Jun 5.1 03:23:21 10° NNE 03:24:12 14° NNE 03:24:12 14° NNE visible
21 Jun 5.1 05:03:33 10° N 05:04:24 14° N 05:04:24 14° N visible
21 Jun 5.1 06:43:45 10° NNW 06:44:36 14° NNW 06:44:36 14° NNW visible
21 Jun 5.1 08:23:58 10° NW 08:24:49 14° NW 08:24:49 14° NW visible
21 Jun 5.1 10:04:10 10° WNW 10:05:01 14° WNW 10:05:01 14° WNW visible
21 Jun 5.1 11:44:21 10° W 11:45:12 14° WSW 11:45:12 14° WSW visible
21 Jun 5.1 13:24:33 10° WSW 13:25:24 14° SW 13:25:24 14° SW visible
21 Jun 5.1 15:04:46 10° SSW 15:05:36 14° SSW 15:05:36 14° SSW visible
21 Jun 5.1 16:44:57 10° S 16:45:48 14° S 16:45:48 14° S visible
21 Jun 5.1 18:25:10 10° SSE 18:26:00 14° SSE 18:26:00 14° SSE visible
21 Jun 5.1 20:05:22 10° SE 20:06:12 14° SE 20:06:12 14° SE visible
21 Jun 5.1 21:45:34 10° ESE 21:46:24 14° ESE 21:46:24 14° ESE visible
21 Jun 5.1 23:25:46 10° E 23:26:36 14° E 23:26:36 14° E visible
22 Jun 5.1 01:05:58 10° ENE 01:06:48 14° ENE 01:06:48 14° ENE visible
22 Jun 5.1 02:46:10 10° NE 02:47:00 14° NNE 02:47:00 14° NNE visible
22 Jun 5.1 04:26:22 10° NNE 04:27:12 14° N 04:27:12 14° N visible
22 Jun 5.1 06:06:34 10° NNW 06:07:24 14° NNW 06:07:24 14° NNW visible
22 Jun 5.1 07:46:46 10° NW 07:47:36 14° NW 07:47:36 14° NW visible
22 Jun 5.1 09:26:58 10° WNW 09:27:48 14° WNW 09:27:48 14° WNW visible
22 Jun 5.1 11:07:10 10° W 11:08:00 14° W 11:08:00 14° W visible
22 Jun 5.1 12:47:22 10° WSW 12:48:12 14° WSW 12:48:12 14° WSW visible
22 Jun 5.1 14:27:34 10° SW 14:28:24 14° SW 14:28:24 14° SW visible
22 Jun 5.1 16:07:46 10° SSW 16:08:36 14° SSW 16:08:36 14° SSW visible
22 Jun 5.1 17:47:58 10° S 17:48:48 14° SSE 17:48:48 14° SSE visible
22 Jun 5.1 19:28:10 10° SSE 19:29:00 14° SE 19:29:00 14° SE visible
22 Jun 5.1 21:08:22 10° ESE 21:09:12 14° ESE 21:09:12 14° ESE visible
22 Jun 5.1 22:48:35 10° E 22:49:24 14° E 22:49:24 14° E visible
23 Jun 5.1 00:28:47 10° ENE 00:29:36 14° ENE 00:29:36 14° ENE visible
23 Jun 5.1 02:08:59 10° NE 02:09:48 14° NE 02:09:48 14° NE visible
23 Jun 5.1 03:49:10 10° NNE 03:50:00 14° NNE 03:50:00 14° NNE visible
23 Jun 5.1 05:29:22 10° N 05:30:12 14° N 05:30:12 14° N visible
23 Jun 5.1 07:09:35 10° NNW 07:10:24 14° NNW 07:10:24 14° NNW visible
23 Jun 5.1 08:49:47 10° NW 08:50:36 14° WNW 08:50:36 14° WNW visible
23 Jun 5.1 10:29:58 10° WNW 10:30:48 14° W 10:30:48 14° W visible
23 Jun 5.1 12:10:11 10° WSW 12:11:00 14° WSW 12:11:00 14° WSW visible
23 Jun 5.1 13:50:23 10° SW 13:51:12 14° SW 13:51:12 14° SW visible
23 Jun 5.1 15:30:35 10° SSW 15:31:24 14° SSW 15:31:24 14° SSW visible
23 Jun 5.1 17:10:47 10° S 17:11:36 14° S 17:11:36 14° S visible
23 Jun 5.1 18:50:59 10° SSE 18:51:48 14° SSE 18:51:48 14° SSE visible
23 Jun 5.1 20:31:11 10° SE 20:32:00 14° SE 20:32:00 14° SE visible
23 Jun 5.1 22:11:23 10° ESE 22:12:12 14° ESE 22:12:12 14° ESE visible
23 Jun 5.1 23:51:35 10° E 23:52:24 14° ENE 23:52:24 14° ENE visible
24 Jun 5.1 01:31:47 10° NE 01:32:36 14° NE 01:32:36 14° NE visible
24 Jun 5.1 03:11:59 10° NNE 03:12:48 14° NNE 03:12:48 14° NNE visible
24 Jun 5.1 04:52:11 10° N 04:53:00 14° N 04:53:00 14° N visible
24 Jun 5.1 06:32:23 10° NNW 06:33:12 14° NNW 06:33:12 14° NNW visible
24 Jun 5.1 08:12:35 10° NW 08:13:24 14° NW 08:13:24 14° NW visible
24 Jun 5.1 09:52:47 10° WNW 09:53:36 14° WNW 09:53:36 14° WNW visible
24 Jun 5.1 11:32:59 10° W 11:33:48 14° W 11:33:48 14° W visible
24 Jun 5.1 13:13:12 10° WSW 13:14:00 14° SW 13:14:00 14° SW visible
24 Jun 5.1 14:53:24 10° SW 14:54:12 14° SSW 14:54:12 14° SSW visible
24 Jun 5.1 16:33:36 10° S 16:34:24 14° S 16:34:24 14° S visible
24 Jun 5.1 18:13:48 10° SSE 18:14:36 14° SSE 18:14:36 14° SSE visible
24 Jun 5.1 19:54:00 10° SE 19:54:49 14° SE 19:54:49 14° SE visible
24 Jun 5.1 21:34:11 10° ESE 21:35:01 14° ESE 21:35:01 14° ESE visible
24 Jun 5.1 23:14:24 10° E 23:15:12 14° E 23:15:12 14° E visible
25 Jun 5.1 00:54:36 10° ENE 00:55:25 14° ENE 00:55:25 14° ENE visible
25 Jun 5.1 02:34:48 10° NE 02:35:37 14° NE 02:35:37 14° NE visible
25 Jun 5.1 04:15:01 10° NNE 04:15:49 14° N 04:15:49 14° N visible
25 Jun 5.1 05:55:12 10° N 05:56:01 14° NNW 05:56:01 14° NNW visible
25 Jun 5.1 07:35:24 10° NW 07:36:13 14° NW 07:36:13 14° NW visible
25 Jun 5.1 09:15:36 10° WNW 09:16:25 14° WNW 09:16:25 14° WNW visible
25 Jun 5.1 10:55:48 10° W 10:56:37 14° W 10:56:37 14° W visible
25 Jun 5.1 12:36:00 10° WSW 12:36:49 14° WSW 12:36:49 14° WSW visible
25 Jun 5.1 14:16:13 10° SW 14:17:01 14° SW 14:17:01 14° SW visible
25 Jun 5.1 15:56:24 10° SSW 15:57:13 14° SSW 15:57:13 14° SSW visible
25 Jun 5.1 17:36:36 10° S 17:37:25 14° S 17:37:25 14° S visible
25 Jun 5.1 19:16:49 10° SSE 19:17:37 14° SE 19:17:37 14° SE visible
25 Jun 5.1 20:57:01 10° SE 20:57:49 14° ESE 20:57:49 14° ESE visible
25 Jun 5.1 22:37:13 10° E 22:38:01 14° E 22:38:01 14° E visible
26 Jun 5.1 00:17:25 10° ENE 00:18:13 14° ENE 00:18:13 14° ENE visible
26 Jun 5.1 01:57:37 10° NE 01:58:25 14° NE 01:58:25 14° NE visible
26 Jun 5.1 03:37:48 10° NNE 03:38:37 14° NNE 03:38:37 14° NNE visible
26 Jun 5.1 05:18:00 10° N 05:18:49 14° N 05:18:49 14° N visible
26 Jun 5.1 06:58:13 10° NNW 06:59:01 14° NNW 06:59:01 14° NNW visible
26 Jun 5.1 08:38:25 10° NW 08:39:14 14° NW 08:39:14 14° NW visible
26 Jun 5.1 10:18:37 10° WNW 10:19:26 14° W 10:19:26 14° W visible
26 Jun 5.1 11:58:49 10° W 11:59:37 14° WSW 11:59:37 14° WSW visible
26 Jun 5.1 13:39:01 10° SW 13:39:50 14° SW 13:39:50 14° SW visible
26 Jun 5.1 15:19:13 10° SSW 15:20:02 14° SSW 15:20:02 14° SSW visible
26 Jun 5.1 16:59:25 10° S 17:00:14 14° S 17:00:14 14° S visible
26 Jun 5.1 18:39:37 10° SSE 18:40:26 14° SSE 18:40:26 14° SSE visible
26 Jun 5.1 20:19:49 10° SE 20:20:38 14° SE 20:20:38 14° SE visible
26 Jun 5.1 22:00:01 10° ESE 22:00:50 14° ESE 22:00:50 14° ESE visible
26 Jun 5.1 23:40:13 10° E 23:41:02 14° E 23:41:02 14° E visible
27 Jun 5.1 01:20:25 10° ENE 01:21:14 14° NE 01:21:14 14° NE visible
27 Jun 5.1 03:00:38 10° NE 03:01:26 14° NNE 03:01:26 14° NNE visible
27 Jun 5.1 04:40:50 10° N 04:41:39 14° N 04:41:39 14° N visible
27 Jun 5.1 06:21:02 10° NNW 06:21:51 14° NNW 06:21:51 14° NNW visible
27 Jun 5.1 08:01:14 10° NW 08:02:03 14° NW 08:02:03 14° NW visible
27 Jun 5.1 09:41:25 10° WNW 09:42:15 14° WNW 09:42:15 14° WNW visible
27 Jun 5.1 11:21:38 10° W 11:22:27 14° W 11:22:27 14° W visible
27 Jun 5.1 13:01:50 10° WSW 13:02:39 14° WSW 13:02:39 14° WSW visible
27 Jun 5.1 14:42:02 10° SW 14:42:51 14° SSW 14:42:51 14° SSW visible
27 Jun 5.1 16:22:14 10° SSW 16:23:03 14° S 16:23:03 14° S visible
27 Jun 5.1 18:02:26 10° SSE 18:03:15 14° SSE 18:03:15 14° SSE visible
27 Jun 5.1 19:42:38 10° SE 19:43:27 14° SE 19:43:27 14° SE visible
27 Jun 5.1 21:22:50 10° ESE 21:23:39 14° ESE 21:23:39 14° ESE visible
27 Jun 5.1 23:03:02 10° E 23:03:52 14° E 23:03:52 14° E visible
28 Jun 5.1 00:43:14 10° ENE 00:44:04 14° ENE 00:44:04 14° ENE visible
28 Jun 5.1 02:23:26 10° NE 02:24:16 14° NE 02:24:16 14° NE visible
28 Jun 5.1 04:03:38 10° NNE 04:04:28 14° NNE 04:04:28 14° NNE visible
28 Jun 5.1 05:43:50 10° N 05:44:39 14° NNW 05:44:39 14° NNW visible
28 Jun 5.1 07:24:03 10° NNW 07:24:52 14° NW 07:24:52 14° NW visible
28 Jun 5.1 09:04:14 10° WNW 09:05:04 14° WNW 09:05:04 14° WNW visible
28 Jun 5.1 10:44:26 10° W 10:45:16 14° W 10:45:16 14° W visible
28 Jun 5.1 12:24:38 10° WSW 12:25:28 14° WSW 12:25:28 14° WSW visible
28 Jun 5.1 14:04:50 10° SW 14:05:41 14° SW 14:05:41 14° SW visible
28 Jun 5.1 15:45:03 10° SSW 15:45:53 14° SSW 15:45:53 14° SSW visible
28 Jun 5.1 17:25:15 10° S 17:26:05 14° S 17:26:05 14° S visible
28 Jun 5.1 19:05:27 10° SSE 19:06:17 14° SSE 19:06:17 14° SSE visible
28 Jun 5.1 20:45:39 10° SE 20:46:29 14° ESE 20:46:29 14° ESE visible
28 Jun 5.1 22:25:51 10° ESE 22:26:41 14° E 22:26:41 14° E visible
29 Jun 5.1 00:06:03 10° ENE 00:06:53 14° ENE 00:06:53 14° ENE visible
29 Jun 5.1 01:46:15 10° NE 01:47:05 14° NE 01:47:05 14° NE visible
29 Jun 5.0 03:26:27 10° NNE 03:27:18 14° NNE 03:27:18 14° NNE visible
29 Jun 5.0 05:06:39 10° N 05:07:30 14° N 05:07:30 14° N visible
29 Jun 5.0 06:46:51 10° NNW 06:47:42 14° NNW 06:47:42 14° NNW visible
29 Jun 5.0 08:27:03 10° NW 08:27:54 14° NW 08:27:54 14° NW visible
29 Jun 5.0 10:07:15 10° WNW 10:08:06 14° WNW 10:08:06 14° WNW visible
29 Jun 5.0 11:47:27 10° W 11:48:18 14° WSW 11:48:18 14° WSW visible
29 Jun 5.0 13:27:39 10° WSW 13:28:30 14° SW 13:28:30 14° SW visible
29 Jun 5.0 15:07:51 10° SSW 15:08:42 14° SSW 15:08:42 14° SSW visible
29 Jun 5.0 16:48:04 10° S 16:48:55 14° S 16:48:55 14° S visible
29 Jun 5.0 18:28:15 10° SSE 18:29:07 14° SSE 18:29:07 14° SSE visible
29 Jun 5.0 20:08:27 10° SE 20:09:19 14° SE 20:09:19 14° SE visible
29 Jun 5.0 21:48:39 10° ESE 21:49:31 14° ESE 21:49:31 14° ESE visible
29 Jun 5.0 23:28:52 10° E 23:29:43 14° E 23:29:43 14° E visible
